Location: Joplin, MO
(37.0842°N, 94.5133°W)
Time: 21:23:54
(UTC+02:00)

Transit 2A Rocket - Pass Details

Date: 04 April 2023
Orbit: 584 x 914 km, 66.7° (Epoch: 06 June)

Event Time Altitude Azimuth Distance (km) Brightness Sun altitude
Rises 00:16:05 0° 348° (NNW) 3,554 8.4 28.1°
Reaches altitude 10° 00:21:27 10° 27° (NNE) 2,587 7.5 27.0°
Maximum altitude 00:22:33 10° 38° (NE) 2,544 7.3 26.8°
Drops below altitude 10° 00:23:38 10° 48° (NE) 2,568 7.3 26.6°
Sets 00:28:49 0° 87° (E) 3,436 7.8 25.6°
